This is the latest recevied weather packets stored in our database for station/object KB0RPJ. If no packets are shown the sender has not sent any weather packets the latest 10 day(s).
| Time | Temp. | Humidity | Pressure | Rain* | Wind** | Luminosity | Snow |
|---|---|---|---|---|---|---|---|
| 1778085304 | 11.67° C | 36% | 1018.9 hPa | 0 mm | - | 668 W/m² | - |
| 1778085005 | 12.22° C | 41% | 1019 hPa | 0 mm | - | 625 W/m² | - |
| 1778084704 | 11.67° C | 40% | 1018.9 hPa | 0 mm | - | 571 W/m² | - |
| 1778084405 | 11.67° C | 39% | 1018.9 hPa | 0 mm | - | 588 W/m² | - |
| 1778084105 | 11.67° C | 42% | 1018.8 hPa | 0 mm | - | 629 W/m² | - |
| 1778083805 | 12.22° C | 38% | 1018.8 hPa | 0 mm | - | 633 W/m² | - |
| 1778083505 | 12.22° C | 42% | 1018.7 hPa | 0 mm | - | 609 W/m² | - |
| 1778083204 | 12.22° C | 41% | 1018.6 hPa | 0 mm | - | 635 W/m² | - |
| 1778082904 | 11.67° C | 45% | 1018.5 hPa | 0 mm | - | 671 W/m² | - |
| 1778082605 | 11.67° C | 42% | 1018.4 hPa | 0 mm | - | 634 W/m² | - |
| 1778082305 | 11.67° C | 43% | 1018.4 hPa | 0 mm | - | 510 W/m² | - |
| 1778082021 | 11.11° C | 44% | 1018.3 hPa | 0 mm | - | 597 W/m² | - |
| 1778081705 | 11.11° C | 42% | 1018.4 hPa | 0 mm | - | 610 W/m² | - |
| 1778081406 | 11.11° C | 45% | 1018.4 hPa | 0 mm | - | 624 W/m² | - |
| 1778081105 | 11.11° C | 44% | 1018.5 hPa | 0 mm | - | 650 W/m² | - |
| 1778080805 | 11.11° C | 43% | 1018.4 hPa | 0 mm | - | 539 W/m² | - |
| 1778080505 | 11.11° C | 45% | 1018.4 hPa | 0 mm | - | 411 W/m² | - |
| 1778080205 | 11.11° C | 47% | 1018.2 hPa | 0 mm | - | 350 W/m² | - |
| 1778079918 | 11.11° C | 46% | 1018.3 hPa | 0 mm | - | 362 W/m² | - |
| 1778079605 | 10.56° C | 47% | 1018.3 hPa | 0 mm | - | 368 W/m² | - |
| 1778079307 | 10.56° C | 48% | 1018.2 hPa | 0 mm | - | 344 W/m² | - |
| 1778079006 | 10.56° C | 48% | 1018.1 hPa | 0 mm | - | 291 W/m² | - |
| 1778078705 | 10.56° C | 48% | 1018.1 hPa | 0 mm | - | 256 W/m² | - |
| 1778078405 | 10.56° C | 49% | 1018.1 hPa | 0 mm | - | 248 W/m² | - |
| 1778078104 | 10° C | 50% | 1018 hPa | 0 mm | - | 246 W/m² | - |
* Rain latest hour (hover to see other rain measurements)
** Current wind speed in m/s (hover to see current wind gust speed)